Torna al catalogo

EDDA-1 300E

AttivoComunicazioniSSO
NORAD 69017·PAYLOAD·🇺🇸 United States

Lanciato May 3, 2026 da Vandenberg Space Force Base

Loading…

Prossimi Passaggi (prossime 24 ore)

TLE

AggiornatoSource: CelesTrak SupGP

Epoca: Sep 14, 2026, 22:16 UTC

1 69017C 26100S   26257.92829861  .00002047  00000+0  81710-4 0  2579
2 69017  97.3485 154.3586 0003223 120.2771  19.9946 15.25216245    15

Traccia EDDA-1 300E in tempo reale con AllMySat

Download on the App Store